Location: Kellogg
(38.0159°N, 90.0546°W)
Time: 15:22:10
(UTC+00:00)

Altair - Pass Details

Date: 19 September 2024
Orbit: 1501 x 1682 km, 47.2° (Epoch: 15 October)

Event Time Altitude Azimuth Distance (km) Brightness Sun altitude
Exits shadow 08:05:38 72° 7° (N) 1,735 7.6 -40.4°
Drops below altitude 10° 08:15:06 10° 59° (ENE) 3,948 10.3 -39.0°
Sets 08:18:18 0° 61° (ENE) 4,938 11.0 -38.5°
